Location: Newark
(40.9833°N, 0.0333°W)
Time: 00:07:19
(UTC+00:00)

deb Explorer IX - Pass Details

Date: 29 October 2020
Orbit: 537 x 1105 km, 38.8° (Epoch: 03 December)

Event Time Altitude Azimuth Distance (km) Brightness Sun altitude
Rises 06:33:11 0° 258° (WSW) 3,429 ? 0.1°
Reaches altitude 10° 06:35:35 10° 256° (WSW) 2,574 ? 0.6°
Maximum altitude 06:41:50 72° 173° (S) 1,042 ? 1.7°
Drops below altitude 10° 06:48:56 10° 91° (E) 2,904 ? 2.9°
Sets 06:51:47 0° 89° (E) 3,895 ? 3.4°
